HAZ3473 ZGSZ-ZSJN

Flight info

Callsign HAZ3473
Flight time N/A
Altitude 35100
Route IDUMA W41 OMDUP G471 PLT W19 RUNEK H46 P262 X39 P206 H2 HFE W127 ATVIM H104 TOS H40 P292
Aircraft A320/M-SDE3FGHIRWY/LB1

Departure

Time 2026-04-29 12:50
Airport Shenzhen Bao'an International Airport (ZGSZ)

Arrival

Time N/A
Airport Jinan Yaoqiang International Airport (ZSJN)
Time Latitude Longitude Altitude Speed Heading
2026-04-29 12:46 22.62591 113.81573 14 ft 13 kts 153°
2026-04-29 12:46 22.62560 113.81590 14 ft 1 kts 153°
2026-04-29 12:46 22.62556 113.81593 13 ft 1 kts 153°
2026-04-29 12:47 22.62552 113.81595 13 ft 1 kts 153°
2026-04-29 12:47 22.62548 113.81597 13 ft 1 kts 153°
2026-04-29 12:47 22.62546 113.81599 13 ft 0 kts 153°
2026-04-29 12:47 22.62543 113.81600 13 ft 0 kts 153°
2026-04-29 12:48 22.62539 113.81602 13 ft 4 kts 153°
2026-04-29 12:48 22.62512 113.81658 14 ft 13 kts 89°
2026-04-29 12:48 22.62555 113.81767 13 ft 11 kts 64°
2026-04-29 12:48 22.62609 113.81781 13 ft 9 kts 333°
2026-04-29 12:49 22.62661 113.81752 12 ft 8 kts 332°
2026-04-29 12:49 22.62703 113.81729 13 ft 19 kts 333°
2026-04-29 12:49 22.63063 113.81532 10 ft 93 kts 333°
2026-04-29 12:49 22.63822 113.81120 16 ft 148 kts 333°
2026-04-29 12:50 22.64836 113.80558 331 ft 168 kts 332°
2026-04-29 12:50 22.65884 113.79995 1036 ft 169 kts 333°
2026-04-29 12:50 22.66940 113.79437 1729 ft 170 kts 333°
2026-04-29 12:50 22.68047 113.78832 2147 ft 189 kts 332°
2026-04-29 12:51 22.69282 113.78146 2430 ft 211 kts 332°
2026-04-29 12:51 22.70660 113.77381 2740 ft 234 kts 332°
2026-04-29 12:51 22.72148 113.76565 3443 ft 243 kts 335°
2026-04-29 12:51 22.73811 113.76254 4237 ft 249 kts 10°
2026-04-29 12:52 22.75352 113.77078 5046 ft 253 kts 42°
2026-04-29 12:52 22.76591 113.78440 5922 ft 255 kts 49°
2026-04-29 12:52 22.77735 113.79919 6765 ft 258 kts 51°
2026-04-29 12:52 22.78864 113.81442 7596 ft 261 kts 51°
2026-04-29 12:53 22.80013 113.82979 8417 ft 264 kts 51°
2026-04-29 12:53 22.81189 113.84523 9225 ft 267 kts 50°
2026-04-29 12:53 22.82402 113.86088 9848 ft 280 kts 50°
2026-04-29 12:53 22.83705 113.87741 10279 ft 298 kts 49°
2026-04-29 12:54 22.85107 113.89507 10548 ft 321 kts 49°
2026-04-29 12:54 22.86621 113.91403 10782 ft 344 kts 49°
2026-04-29 12:54 22.88291 113.93381 10963 ft 366 kts 41°
2026-04-29 12:54 22.90438 113.94921 11451 ft 375 kts 24°
2026-04-29 12:55 22.92944 113.95746 12100 ft 380 kts
2026-04-29 12:55 22.95563 113.96204 12784 ft 383 kts
2026-04-29 12:55 22.98208 113.96660 13446 ft 387 kts
2026-04-29 12:55 23.00879 113.97120 14085 ft 390 kts
2026-04-29 12:56 23.03570 113.97587 14711 ft 394 kts
2026-04-29 12:56 23.06287 113.98061 15314 ft 397 kts
2026-04-29 12:56 23.09028 113.98538 15886 ft 401 kts
2026-04-29 12:56 23.11794 113.99019 16438 ft 404 kts
2026-04-29 12:57 23.14578 113.99503 16990 ft 407 kts
2026-04-29 12:57 23.17385 113.99992 17520 ft 410 kts
2026-04-29 12:57 23.20217 114.00486 18040 ft 413 kts
2026-04-29 12:57 23.23065 114.00981 18542 ft 416 kts
2026-04-29 12:58 23.25936 114.01483 19029 ft 420 kts
2026-04-29 12:58 23.28837 114.01916 19513 ft 423 kts
2026-04-29 12:58 23.31746 114.01914 19964 ft 425 kts 357°
2026-04-29 12:58 23.34711 114.01778 20426 ft 428 kts 357°
2026-04-29 12:59 23.37696 114.01642 20877 ft 431 kts 357°
2026-04-29 12:59 23.40701 114.01505 21314 ft 434 kts 357°
2026-04-29 12:59 23.43588 114.01377 21718 ft 436 kts 358°
2026-04-29 12:59 23.46625 114.01562 22109 ft 439 kts
2026-04-29 13:00 23.49606 114.02333 22501 ft 442 kts 18°
2026-04-29 13:00 23.52435 114.03659 22878 ft 445 kts 28°
2026-04-29 13:00 23.55035 114.05503 23245 ft 447 kts 37°
2026-04-29 13:00 23.57504 114.07578 23615 ft 450 kts 38°
2026-04-29 13:01 23.59988 114.09668 23272 ft 452 kts 33°
2026-04-29 13:01 23.62507 114.11783 23438 ft 461 kts 34°
2026-04-29 13:01 23.65072 114.13938 23571 ft 470 kts 34°
2026-04-29 13:01 23.67680 114.16131 23695 ft 477 kts 34°
2026-04-29 13:02 23.70321 114.18352 23866 ft 481 kts 34°
2026-04-29 13:02 23.72980 114.20591 24116 ft 484 kts 34°
2026-04-29 13:02 23.75610 114.22808 24374 ft 487 kts 34°
2026-04-29 13:02 23.78296 114.25072 24629 ft 489 kts 34°
2026-04-29 13:03 23.80991 114.27345 24906 ft 491 kts 34°
2026-04-29 13:03 23.83703 114.29624 25157 ft 493 kts 34°
2026-04-29 13:03 23.86445 114.31891 25412 ft 495 kts 33°
2026-04-29 13:03 23.89212 114.34145 25672 ft 497 kts 33°
2026-04-29 13:04 23.91998 114.36400 25932 ft 499 kts 33°
2026-04-29 13:04 23.94793 114.38664 26155 ft 502 kts 33°
2026-04-29 13:04 23.97600 114.40948 26386 ft 504 kts 32°
2026-04-29 13:04 24.00417 114.43254 26604 ft 507 kts 33°
2026-04-29 13:05 24.03241 114.45575 26841 ft 509 kts 33°
2026-04-29 13:05 24.06076 114.47905 27075 ft 511 kts 33°
2026-04-29 13:05 24.08922 114.50247 27322 ft 513 kts 33°
2026-04-29 13:05 24.11779 114.52595 27641 ft 513 kts 33°
2026-04-29 13:06 24.14589 114.54906 27973 ft 513 kts 33°
2026-04-29 13:06 24.17440 114.57253 28311 ft 513 kts 33°
2026-04-29 13:06 24.20291 114.59601 28641 ft 512 kts 33°
2026-04-29 13:06 24.23141 114.61947 28969 ft 512 kts 33°
2026-04-29 13:07 24.25993 114.64291 29285 ft 513 kts 32°
2026-04-29 13:07 24.28845 114.66639 29603 ft 513 kts 32°
2026-04-29 13:07 24.31736 114.69021 29953 ft 513 kts 33°
2026-04-29 13:07 24.34554 114.71345 30288 ft 513 kts 32°
2026-04-29 13:08 24.37406 114.73698 30588 ft 513 kts 33°
2026-04-29 13:08 24.40257 114.76051 30902 ft 512 kts 33°
2026-04-29 13:08 24.43103 114.78403 31209 ft 512 kts 33°
2026-04-29 13:08 24.45950 114.80758 31510 ft 512 kts 33°
2026-04-29 13:09 24.48794 114.83114 31808 ft 512 kts 33°
2026-04-29 13:09 24.51638 114.85470 32124 ft 512 kts 33°
2026-04-29 13:09 24.54481 114.87824 32394 ft 512 kts 33°
2026-04-29 13:09 24.57335 114.90162 32702 ft 510 kts 30°
2026-04-29 13:10 24.60365 114.92139 33004 ft 504 kts 21°
2026-04-29 13:10 24.63586 114.93599 33309 ft 497 kts 12°
2026-04-29 13:10 24.66909 114.94550 33619 ft 492 kts
2026-04-29 13:10 24.70252 114.95366 33918 ft 492 kts
2026-04-29 13:11 24.73597 114.96191 34217 ft 492 kts
2026-04-29 13:11 24.76936 114.97018 34491 ft 492 kts
2026-04-29 13:11 24.80260 114.97838 34774 ft 491 kts
2026-04-29 13:11 24.83594 114.98654 35056 ft 491 kts
2026-04-29 13:12 24.86930 114.99466 35204 ft 492 kts
2026-04-29 13:12 24.93650 115.01092 35241 ft 496 kts
2026-04-29 13:13 25.00392 115.02734 35241 ft 497 kts
2026-04-29 13:13 25.07143 115.04385 35245 ft 497 kts
2026-04-29 13:14 25.13898 115.06037 35245 ft 498 kts
2026-04-29 13:14 25.20658 115.07693 35246 ft 498 kts
2026-04-29 13:15 25.27378 115.09339 35253 ft 498 kts
2026-04-29 13:15 25.34165 115.09899 35259 ft 479 kts 347°
2026-04-29 13:16 25.40453 115.08258 35258 ft 459 kts 329°
2026-04-29 13:16 25.46058 115.05411 35258 ft 456 kts 327°